"Pseudo-MPEC" for N00kom9

Created 2022 Oct 2 3:22:13 UT using Find_Orb

Click here for an explanation of pseudo-MPECs

 
 Astrometry: 
     N00kom9* S2022 09 23tj$Wn-A;y$h,+9Y;3GtJ`upx0(u6@N11,BYndumBcS'V2Bi3pC7VC51
     N00kom9  s2022 09 23s-.]5^tVf+AMMAkuh38BnH.78B-53.ALlVd@fQK-$R.yx]Aev=ZxC51
     N00kom9  S2022 09 23Lq6HX[vh#Z3Ayr%aP2I)0,Ku\h/[:K9Qx5@TlTg4/A`h(kQt07y`C51
     N00kom9  s2022 09 23tho/\PZyifwX,Q%:smI:Slvxl'sWr=l:f!wp6v9MrbXQQDkQrAPHC51
     N00kom9  S2022 09 23#ugOl3jY5A)KqCMDoiFk.DKSuwu%C(7d2^x=gw8nC?l8.H^SV(Y0C51
     N00kom9  s2022 09 23XV_]L(@GRE.sf_s$S=wE/_mH8$*Khb(M.UtLV(UhUAMOyZFv%U[LC51
     N00kom9  S2022 09 23WNPbyJ[E$DUxJ1$Sgl..s7.S]^Xmt_Jif!b77-;[bn+tr8;?!#88C51
     N00kom9  s2022 09 23elPJ$wx=!-h!o%lVt'?Bgm;%.4Z1Lswr#!Qyn!y!iTJH!'w(?om4C51
     N00kom9  S2022 09 23OUH/@O\Astrometryq!_LR_KG;$*3M-4.*b#fUlodn$^w;0y\+:.C51
     N00kom9  s2022 09 23,Uf/_y6F3x**`bpoT?3HwqF8'E9d*SL7.8G8jH%hR/N:YwHx0qv'C51
     N00kom9  S2022 09 23=4c''F4S7vE7x7'F=IRQGredacted;`No88f4t]#]S^dsqkIp)G.C51
     N00kom9  s2022 09 23dm%h+?GEHp^`7LZN)=(h[\;,Md#02euYjc3O\4u*+3kv_KJCCR1$C51
     N00kom9  S2022 09 234LebjhrVSG6wdIG8UQChv?(HiKkB6I04r,VEcclS`WVAXnv/7e`0C51
     N00kom9  s2022 09 23G.TrSP.V`Jk30!XseJL%[)F9wC#i.cSUK-'X]i4xmY1#[iQm#%O`C51
     N00kom9  S2022 09 24LB8IE[Wb4fgvGE3j41]mv`(?7(3o./48!]8\nK4hG[gZK!FboBQbC51
     N00kom9  s2022 09 24nZOcBELV7NmO0a*[OL\d9=i;cQd_S;!GO*dq)7'AetJO5TedG(@dC51
     N00kom9  S2022 09 24q5'HyAnv#D'h;dYw+xKVM;0lY7:b1XYF:\E[89W;78]-#*bn/vJ)C51
     N00kom9  s2022 09 24h*tclick(F+here;%+U;*jSwGo5:RB=IY=5x9:[\xUdDfor:%#y4C51
     N00kom9  S2022 09 24?)$rA;@N77w=pn-HbG)Dy8bC,h+V?4[loa30[aL8?B-EIM(mLuUIC51
     N00kom9  s2022 09 24'wJgTCU55JP#5ed77#V3d]X3d;Zk65:=3^Ab:0Qd:TS%sjpP!)n8C51
     N00kom9  S2022 09 24[VW;GmPd=4#^P=n([.65g/Y]9ZA-L]h)n)*a4%Q5(jey8G[!8Jh!C51
     N00kom9  s2022 09 24];GD*k'xN29b2rnGU8gTPhi+9t(wTwo!ym+ju]s-P5sH)u#ub2P!C51
     N00kom9  S2022 09 2411o_9explanationl96;:i.y4)\-jfBdi_l!!$[+ZmOR/uly6`ixC51
     N00kom9  s2022 09 24`#\vdLc,jRf)xB*W#j7p,fIpaooQU8O;;1l%8/f(aRf9tppR`aHGC51
     N00kom9  S2022 09 24'KqB@fsPY#ENh7.tcaOUUy%-:A/aH[2kUx+1A+`dvnjwB-8H\mW\C51
     N00kom9  s2022 09 24sdv:N7/Ia!$3!/Me+A0(c=AeThC6;af/5WLx3q[muHI*uhipRrYpC51
     N00kom9  S2022 09 24myJ[v:w],M]2%=vRGq!pUP_EG7qZad3ey/%Pm_7tvIy9IvFqGGA#C51
     N00kom9  s2022 09 24QZHRLs3g]FS\VXg#r$wnMPbQL.N/wQ`XS9*LKc$y67f9/jjWrA?IC51
     N00kom9 |C2022 09 30G'%u6Q4YD_$jH*HHA_h4HY%QFyTm'YCq5IJ]BB$fE/5G*N5wnCWy807
     N00kom9 |C2022 09 30iVS77fZc)eLf@HcD5.-JU7xD0OmS,lwchT@H=v+]L#K5G`w/0Rbv807
     N00kom9 |C2022 09 3008CD6oaj]0_Y-jcs4+ut(**Z*G1o_T3]D(Ehe;SJt:nk#1d8p_2y807
     N00kom9 |C2022 09 30Cq3(xwW-0nQl9@WTM[)gOtj:8(1R;0u2w#*vT;)d/ZV#Tg1':nRh807
     N00kom9 |C2022 10 019F[AW36Ab?@,;t!D91XI4gkEHm:qE(0F=+WPBymDr3+ga,1qC$_d807
     N00kom9 |C2022 10 01o_3by^b[n.yye)uv@6c%#Keh%]f)vPx[=;Z!#pIeI#*RxI)r_lQ=807

Station data:
(807) Cerro Tololo Observatory, La Serena  (S30.169133 W70.805900)  Chile.
   Observer R. Holmes. 0.61-m f/6.5 astrograph + CCD.
(C51) WISE. Measurers A. Mainzer, E. Wright, J. Bauer, T. Grav, J. Dailey, J.
   Masiero, R. Cutri, R. McMillan, R. Walker.

Orbital elements:  N00kom9
   Perihelion 2022 Oct 12.39381 +/- 0.223 TT =  9:27:05 (JD 2459864.89381)
Epoch 2022 Oct  1.0 TT = JDT 2459853.5   Earth MOID: 0.2330   Ma: 0.0742
M 357.56235575 +/- 0.23             (J2000 ecliptic)          AutoNEOCP
n   0.21394452 +/- 0.0166           Peri.  231.55189 +/- 0.22
a   2.76865348 +/- 0.143            Node   135.36036 +/- 0.22
e   0.5873322 +/- 0.0196            Incl.   18.95602 +/- 0.38
P   4.61                   H 21.7   G  0.15   U 10.0
q 1.14253400 +/- 0.00481    Q 4.39477295 +/- 0.281
From 20 observations 2022 Sept. 23-Oct. 1; mean residual 0".45
Residuals in arcseconds: 
220923 C51  .13+  .33+    220924 C51  .57-  .12+    220930 807  .06+  .12-    
220923 C51  .17+  1.0-    220924 C51  .68-  .46-    220930 807  .01-  .08-    
220923 C51  .30+  .49+    220924 C51  .86-  .61-    220930 807  .03+  .22+    
220923 C51  .51+  .58+    220924 C51  .37-  .28+    220930 807  .17+  .03+    
220923 C51  .92+  .50+    220924 C51  .08-  .64-    221001 807  .06-  .07-    
220923 C51  .84-  .34-    220924 C51  .03-  .70+    221001 807  .16-  .02+    
220923 C51  .61+  .05+    220924 C51  .49+  .06-    

Ephemerides (geocentric):
Date (UTC) HH   RA             Dec           delta  r     elong  mag " sig PA
---- --------  ------------   ------------  ------ ------ -----  --- --------
2022 10 02 03  20 58 25.224   -60 31 14.46  .37267 1.1495 104.0 21.9 .525 161
2022 10 02 04  20 58 39.588   -60 32 21.40  .37276 1.1495 104.0 21.9 .532 161
2022 10 02 05  20 58 53.973   -60 33 28.17  .37284 1.1494 104.0 21.9 .538 161
2022 10 02 06  20 59 08.378   -60 34 34.75  .37292 1.1494 103.9 21.9 .545 161
2022 10 02 07  20 59 22.803   -60 35 41.16  .37301 1.1493 103.9 21.9 .552 161
2022 10 02 08  20 59 37.250   -60 36 47.39  .37309 1.1492 103.9 21.9 .558 161
2022 10 02 09  20 59 51.716   -60 37 53.44  .37318 1.1492 103.9 21.9 .565 162
2022 10 02 10  21 00 06.204   -60 38 59.31  .37326 1.1491 103.9 21.9 .572 162
2022 10 02 11  21 00 20.711   -60 40 05.00  .37335 1.1491 103.9 21.9 .578 162
2022 10 02 12  21 00 35.239   -60 41 10.51  .37343 1.1490 103.8 21.9 .585 162
2022 10 02 13  21 00 49.788   -60 42 15.83  .37351 1.1490 103.8 21.9 .591 162
2022 10 02 14  21 01 04.357   -60 43 20.98  .37360 1.1489 103.8 21.9 .598 162
2022 10 02 15  21 01 18.947   -60 44 25.95  .37368 1.1489 103.8 21.9 .604 162
2022 10 02 16  21 01 33.556   -60 45 30.73  .37377 1.1488 103.8 21.9 .610 162
2022 10 02 17  21 01 48.186   -60 46 35.34  .37385 1.1488 103.8 21.9 .616 162
2022 10 02 18  21 02 02.837   -60 47 39.76  .37394 1.1487 103.8 21.9 .623 162
2022 10 02 19  21 02 17.508   -60 48 44.00  .37402 1.1486 103.7 21.9 .629 163
2022 10 02 20  21 02 32.198   -60 49 48.06  .37411 1.1486 103.7 21.9 .635 163
2022 10 02 21  21 02 46.910   -60 50 51.94  .37419 1.1485 103.7 21.9 .641 163
2022 10 02 22  21 03 01.641   -60 51 55.64  .37428 1.1485 103.7 21.9 .647 163
2022 10 02 23  21 03 16.392   -60 52 59.15  .37436 1.1484 103.7 21.9 .653 163
2022 10 03 00  21 03 31.164   -60 54 02.48  .37444 1.1484 103.7 21.9 .658 163
2022 10 03 01  21 03 45.956   -60 55 05.63  .37453 1.1483 103.6 21.9 .664 163
2022 10 03 02  21 04 00.768   -60 56 08.59  .37461 1.1483 103.6 21.9 .670 163
2022 10 03 03  21 04 15.600   -60 57 11.38  .37470 1.1482 103.6 21.9 .675 163
2022 10 03 04  21 04 30.452   -60 58 13.97  .37478 1.1482 103.6 21.9 .681 163
2022 10 03 05  21 04 45.324   -60 59 16.39  .37487 1.1481 103.6 21.9 .687 163
2022 10 03 06  21 05 00.215   -61 00 18.62  .37496 1.1481 103.6 21.9 .692 163
2022 10 03 07  21 05 15.127   -61 01 20.67  .37504 1.1480 103.6 22.0 .697 163
2022 10 03 08  21 05 30.059   -61 02 22.54  .37513 1.1480 103.5 22.0 .703 163
2022 10 03 09  21 05 45.011   -61 03 24.22  .37521 1.1479 103.5 22.0 .708 163
2022 10 03 10  21 05 59.982   -61 04 25.71  .37530 1.1479 103.5 22.0 .713 163
2022 10 03 11  21 06 14.973   -61 05 27.02  .37538 1.1478 103.5 22.0 .718 163
2022 10 03 12  21 06 29.985   -61 06 28.15  .37547 1.1478 103.5 22.0 .723 163
2022 10 03 13  21 06 45.015   -61 07 29.09  .37555 1.1477 103.5 22.0 .728 163
2022 10 03 14  21 07 00.066   -61 08 29.85  .37564 1.1477 103.4 22.0 .733 164
2022 10 03 15  21 07 15.136   -61 09 30.42  .37572 1.1476 103.4 22.0 .737 164
2022 10 03 16  21 07 30.226   -61 10 30.81  .37581 1.1476 103.4 22.0 .742 164
2022 10 03 17  21 07 45.336   -61 11 31.01  .37590 1.1475 103.4 22.0 .747 164
2022 10 03 18  21 08 00.465   -61 12 31.03  .37598 1.1475 103.4 22.0 .751 164
2022 10 03 19  21 08 15.613   -61 13 30.86  .37607 1.1474 103.4 22.0 .756 164
2022 10 03 20  21 08 30.782   -61 14 30.50  .37615 1.1474 103.4 22.0 .760 164
2022 10 03 21  21 08 45.969   -61 15 29.96  .37624 1.1474 103.3 22.0 .764 164
2022 10 03 22  21 09 01.177   -61 16 29.23  .37632 1.1473 103.3 22.0 .768 164
2022 10 03 23  21 09 16.403   -61 17 28.31  .37641 1.1473 103.3 22.0 .772 164
2022 10 04 00  21 09 31.649   -61 18 27.21  .37650 1.1472 103.3 22.0 .776 164
2022 10 04 01  21 09 46.915   -61 19 25.92  .37658 1.1472 103.3 22.0 .780 164
2022 10 04 02  21 10 02.199   -61 20 24.44  .37667 1.1471 103.3 22.0 .784 164